User: anonymous   Login
Location: Saratoga Springs
(43.0831°N, 73.7850°W)
Time: 17:53:04
(UTC-04:00)
Language:

SR - Orbit

View from above orbital plane
View from above orbital plane
View from above satellite
View from above satellite

Ground track
Ground track

The orbit data is extracted from the following two-line orbital elements,

1    46U 60007B   24103.06353408  .00002410  00000-0  48104-3 0  9999
2    46  66.6902 234.3180 0202236 172.6731 187.7416 14.51664753341288
Epoch (UTC): 12 April 2024 01:31:29
Eccentricity: 0.0202236
inclination: 66.6902°
perigee height: 576 km
apogee height: 864 km
right ascension of ascending node: 234.3180°
argument of perigee: 172.6731°
revolutions per day: 14.51664753
mean anomaly at epoch: 187.7416°
orbit number at epoch: 34128

The dashed part of the orbit path shows where the satellite is in the earth's shadow,  

DLR